Find Starlink 5310

NORAD ID: 55272 Int'l Des: 2023-010 Owner: SPXS Country: US Constellation: starlink operational
LEOCIRCULAR

現在のビュー

3D地球を読み込み中...

About Starlink 5310

Starlink 5310 (NORAD 55272) is a starlink constellation satellite (v1.5) launched Jan 19, 2023 by SPXS of US. It operates in LEO, CIRCULAR orbit with a mass of 305.00 kg.

次回通過

Passes for default location (London). Set your location on the main map for personalized predictions.

高度履歴

Loading altitude history...

軌道要素

1 55272U 23010D 26237.37804019 -.00000114 00000-0 -17277-5 0 9996
2 55272 70.0015 339.1447 0003132 270.0765 90.0035 14.98332006198059
Epoch: Aug 25, 2026 • Age: 21 hours

現在のステータス

高度 579.3 km
遠地点 / 近地点 N/A
速度 7.57 km/s
衛星直下点 -23.01°S, 93.27°W
打ち上げ日 Jan 19, 2023
運用期間 3.5 years
タイプ internet

技術仕様

分類 Payload
質量 305.00 kg
乾燥質量 290.00 kg
総質量 305.00 kg
長さ 0.20 m
直径 2.80 m
スパン 9.00 m
形状 Box + pan
製造者 SPXS
バスタイプ Starlink
フェーズステータス In Orbit
所有者/国 SPXS/US

Most Searched